946  
ASUS43 KARX 281059  
RWRARX  
 
HOURLY WEATHER FOR THE UPPER MISSISSIPPI RIVER VALLEY  
NATIONAL WEATHER SERVICE LA CROSSE WI  
500 AM CST MON NOV 28 2022  
 
NOTE: "FAIR" INDICATES FEW OR NO CLOUDS BELOW 12,000 FEET WITH NO  
SIGNIFICANT WEATER AND/OR S TO VISIBILITY
.  
 
MNZ077-085>088-093>096-281200  
SOUTHEAST MINNESOTA  
 
CITY SKY/WX TMP DP RH WIND PRES REMARKS
 
ROCHESTER PTCLDY 21 17 84 S8 29.81F WCI 11  
WINONA CLEAR 23 21 93 CALM 29.86S  
AUSTIN CLEAR 21 21 100 SE5 29.81R WCI 15  
ALBERT LEA PTCLDY 23 21 93 S8 29.79S WCI 14  
DODGE CENTER PTCLDY 19 18 93 SE6 29.80R WCI 11  
PRESTON CLEAR 20 19 93 S5 29.82S WCI 14  
OWATONNA PTCLDY 25 21 86 SE9 29.78F WCI 15  
FARIBAULT PTCLDY 21 21 100 SE3 29.79F  

 
 
WIZ041-042-053>056-061-281200  
SOUTHWEST WISCONSIN  
 
CITY SKY/WX TMP DP RH WIND PRES REMARKS
 
LA CROSSE CLEAR 23 21 92 SE6 29.86S WCI 16  
SPARTA NOT AVBL  
VIROQUA PTCLDY 26 26 100 SE7 29.83S WCI 18  
WIS DELLS CLEAR 17 17 98 CALM 29.87S  
PRAIRIE DU CHI CLEAR 21 19 91 CALM 29.86F  
BOSCOBEL CLEAR 16 12 84 NE3 29.88S  
LONE ROCK PTCLDY 20 14 77 CALM 29.89S  
PLATTEVILLE FAIR 25 21 85 SE5 29.86F WCI 19  

 
 
WIZ017-030-034>036-043>045-281200  
CENTRAL WISCONSIN  
 
CITY SKY/WX TMP DP RH WIND PRES REMARKS
 
MEDFORD CLEAR 19 19 100 CALM 29.83S  
WAUSAU CLEAR 20 16 84 CALM 29.85R  
BLACK RVR FLS PTCLDY 13 11 92 CALM 29.86S  
WIS RAPIDS PTCLDY 18 14 84 CALM 29.87S  
MARSHFIELD PTCLDY 20 17 88 CALM 29.85R  
MAUSTON FAIR 18 16 95 CALM 29.86F  
CAMP DOUGLAS CLEAR 13 10 86 SE3 29.84F  
WAUTOMA CLEAR 15 12 88 CALM 29.89S  

 
 
IAZ008>011-017>019-029-030-281200  
NORTHEAST IOWA  
 
CITY SKY/WX TMP DP RH WIND PRES REMARKS
 
WATERLOO CLEAR 17 13 84 CALM 29.84S  
DUBUQUE CLEAR 23 20 88 SE3 29.85F  
DECORAH MOCLDY 25 23 93 CALM 29.81S  
MASON CITY CLEAR 17 15 92 S7 29.81F WCI 8  
CHARLES CITY CLEAR 19 19 100 S7 29.82S FOG WCI 10  
OELWEIN CLEAR 19 19 100 SE8 29.83F WCI 9  

 
 
WIND SPEEDS ARE IN MILES PER HOUR.  
 
ABBREVIATIONS USED IN THE REMARKS:  
VSB - VISIBILITY IN STATUTE MILES  
WCI - WIND CHILL INDEX  
HX - HEAT INDEX  
 
 
CLICK HERE TO GO TO PREVIOUS BULLETINS.

The Nexlab WI Page
The Nexlab IA Page
The Nexlab MN Page Main Text Page